Location: Newark
(34.9756°N, 138.3828°E)
Time: 23:47:20
(UTC+00:00)

N. Korean satellite - Pass Details

Date: 15 December 2019
Orbit: 454 x 507 km, 97.2° (Epoch: 21 January)

Event Time Altitude Azimuth Distance (km) Brightness Sun altitude
Rises 08:42:43 0° 200° (SSW) 2,596 10.9 -13.3°
Reaches altitude 10° 08:45:17 10° 220° (SW) 1,714 10.3 -13.8°
Maximum altitude 08:47:54 18° 265° (W) 1,274 9.7 -14.3°
Drops below altitude 10° 08:50:32 10° 311° (NW) 1,712 9.7 -14.9°
Sets 08:53:07 0° 330° (NNW) 2,592 10.4 -15.4°
